OBJECT N, 61906

Orbit data source: Space-Track

You're viewing an Uncataloged Satellite

Recently launched and/or uncataloged satellites may have evolving metadata. Metadata may include but not limited to: Owner, Maufacturer, Bus, Motor, and Mission.

OBJECT N, 61906 is a Chinese satellite in SSO that was launched on Mon, 11 Nov 2024 UTC via a LIJIAN-1 launch vehicle from the Jiuquan Satellite Launch Center, China (JSC). Unknown objects in Earth's orbit typically refer to objects detected orbiting the Earth but have not yet been identified or cataloged. These objects could be anything from previously untracked satellites, spent rocket stages, debris from satellite collisions, or even natural meteoroids temporarily captured by Earth's gravity.

Loading next visibility...
Identifier
61906, 2024-205N
Orbit
SSO
Country
Flag of CNCN / PRC
Related business
None
Manufacturer
Unknown
Mission
Operational Commercial Imaging
Bus & Motor
Unknown
Mass
Unknown
Launch date (UTC)
2024-11-11 (1 year ago)
Launch vehicle
LIJIAN-1
Launch site
Jiuquan Satellite Launch Center, China (JSC)
Object type
Unknown
Shape & HBR
Box, 0.1 m
Radar Cross Section
0.035 m², Medium (>0.1 m² and < 1m²)

Expand to show TLE details & history
Last TLE update: 5 hours ago

TLE from 5 hours ago
0 OBJECT N
1 61906U 24205N   25354.51464822  .00011913  00000-0  41117-3 0  9998
2 61906  97.4352  69.2805 0009304 318.3354  41.7177 15.30078651 61489
Epoch: 2025-12-20T12:21Z
TLE epoch observation values (Epoch: 2025-12-20T12:21:05.606Z)
Latitude
0.00001°
Longitude
154.66679°
Altitude
473.922 km
Speed
7.632 km/s
True Right ascension
04h 37m 07s
True Declination
0° 00' 00"
Sunlit
Object was in full shadow at epoch
Visualization orbit readout
Latitude
Unknown
Longitude
Unknown
Altitude
Unknown
Speed
Unknown
Apparent Right ascension
Unknown
Apparent Declination
Unknown
Sunlit
N/A
Visualization observer readout
Local Sidereal Time
16:46:16
Azimuth
Unknown
Elevation
Unknown
Doppler factor
Unknown
Orbital elements
Apogee altitude
478.905 km
Perigee altitude
466.157 km
Semi-major axis
6,850.668 km
Eccentricity
0.00093
Inclination
97.4352°
RAAN
69.2805°
Arg. of periapsis
318.3354°
True anomaly
41.78871°
Mean anomaly
41.7177°
Eccentric anomaly
41.7532°
Mean motion
3.82775 °/min
Orbital period
94.05 mins
BSTAR
0.00041117
Loading maneuver chart data...
Computing Atmospheric mass density...
Loading historical data...
Loading historical data...
Loading historical data...
Loading historical data...
Loading historical data...
Loading historical data...
Loading historical data...

Documentation

Showing up to 5 results
|